Fort Lewis, WA
on Wednesday, December 5, 2012

Wednesday
Previous Day Next Day
Daily Summary
 ActualAverage (KOLM)Record (KOLM)
Temperature
Mean Temperature °F 39°F  
Max Temperature 47°F 45°F 54°F (1954)
Min Temperature 35°F 33°F 12°F (1994)
Degree Days
Heating Degree Days 24 26  
Month to date heating degree days 128  
Since 1 July heating degree days 1573  
Cooling Degree Days 0 0  
Month to date cooling degree days 0  
Year to date cooling degree days 106  
Moisture
Dew Point 38°F   
Average Humidity 88    
Maximum Humidity 97    
Minimum Humidity 66    
Precipitation
Precipitation 0.07 in 0.27 in 2.18 in (1970)
Month to date precipitation 1.40  
Year to date precipitation 43.94  
Wind
Wind Speed 8 mph   
Max Wind Speed 12 mph   
Max Gust Speed 17 mph   
Visibility 10 miles   
Events Rain   

Key: T is trace of precipitation, MM is missing value
Source: NWS Daily Summary
Time(PST)TemperatureDew PointHumidity Pressure Visibility Wind DirectionWind SpeedGust SpeedPrecipitationEvents Conditions
12:08 AM 44.6°F 41.0°F 87% 29.90 in 7.0 miles SSW 6.9 mph 17.3 mph N/A Rain Light Rain
12:13 AM 44.6°F 41.0°F 87% 29.90 in 9.0 miles SSW 10.4 mph 17.3 mph N/A   Mostly Cloudy
12:16 AM 44.6°F 41.0°F 87% 29.90 in 10.0 miles South 10.4 mph - N/A   Mostly Cloudy
12:21 AM 44.6°F 41.0°F 87% 29.90 in 10.0 miles South 11.5 mph - N/A   Mostly Cloudy
12:58 AM 43.0°F 40.5°F 91% 29.92 in 10.0 miles South 10.4 mph - 0.03 in   Partly Cloudy
1:58 AM 42.1°F 38.7°F 88% 29.96 in 10.0 miles South 10.4 mph - N/A   Partly Cloudy
2:58 AM 42.1°F 37.6°F 84% 30.00 in 10.0 miles South 9.2 mph - N/A   Partly Cloudy
3:58 AM 39.0°F 36.7°F 91% 30.04 in 10.0 miles SSE 9.2 mph - N/A   Partly Cloudy
4:40 AM 41.0°F 37.4°F 87% 30.06 in 9.0 miles WSW 5.8 mph - N/A   Light Drizzle
4:50 AM 41.0°F 37.4°F 87% 30.06 in 8.0 miles South 8.1 mph - N/A   Light Drizzle
4:51 AM 41.0°F 37.4°F 87% 30.06 in 9.0 miles South 8.1 mph - N/A   Mostly Cloudy
4:54 AM 41.0°F 37.4°F 87% 30.07 in 10.0 miles South 6.9 mph - N/A   Light Drizzle
4:58 AM 41.0°F 37.4°F 87% 30.09 in 10.0 miles South 5.8 mph - 0.00 in   Light Drizzle
5:03 AM 41.0°F 37.4°F 87% 30.07 in 10.0 miles SE 5.8 mph - N/A   Light Drizzle
6:34 AM 39.2°F 37.4°F 93% 30.10 in 10.0 miles SSE 8.1 mph - N/A   Mostly Cloudy
6:39 AM 39.2°F 37.4°F 93% 30.10 in 10.0 miles SSE 9.2 mph - N/A   Scattered Clouds
6:58 AM 38.3°F 36.5°F 93% 30.13 in 10.0 miles SSE 8.1 mph - 0.01 in   Clear
7:58 AM 35.1°F 34.0°F 96% 30.16 in 10.0 miles SE 8.1 mph - N/A   Clear
8:58 AM 35.2°F 34.3°F 97% 30.18 in 10.0 miles SSE 8.1 mph - N/A   Clear
9:58 AM 38.8°F 37.2°F 94% 30.21 in 10.0 miles SE 8.1 mph - N/A   Mostly Cloudy
10:58 AM 43.9°F 39.7°F 85% 30.22 in 10.0 miles SSE 6.9 mph - N/A   Scattered Clouds
11:58 AM 46.9°F 39.0°F 74% 30.21 in 10.0 miles SSE 11.5 mph - N/A   Clear
12:58 PM 47.5°F 38.3°F 70% 30.20 in 10.0 miles South 8.1 mph - N/A   Clear
1:58 PM 47.8°F 36.9°F 66% 30.19 in 10.0 miles SSE 9.2 mph - N/A   Scattered Clouds
2:58 PM 46.9°F 36.7°F 68% 30.20 in 10.0 miles South 8.1 mph - 0.01 in   Clear
3:58 PM 44.6°F 37.2°F 75% 30.22 in 10.0 miles Variable 2.3 mph - N/A   Mostly Cloudy
4:29 PM 42.8°F 39.2°F 87% 30.21 in 9.0 miles SW 6.9 mph - N/A   Light Drizzle
4:39 PM 42.8°F 37.4°F 81% 30.20 in 5.0 miles SSE 6.9 mph - N/A   Overcast
4:44 PM 41.0°F 37.4°F 87% 30.20 in 8.0 miles SSE 4.6 mph - N/A   Light Drizzle
4:49 PM 41.0°F 37.4°F 87% 30.20 in 10.0 miles SSE 8.1 mph - N/A   Overcast
4:58 PM 41.0°F 39.2°F 93% 30.22 in 10.0 miles ESE 8.1 mph - 0.01 in   Overcast
5:58 PM 39.4°F 38.3°F 96% 30.21 in 10.0 miles SE 8.1 mph - N/A   Clear
6:58 PM 39.7°F 38.7°F 96% 30.22 in 10.0 miles SE 5.8 mph - N/A   Overcast
7:58 PM 39.7°F 38.7°F 96% 30.23 in 10.0 miles SE 5.8 mph - 0.01 in   Mostly Cloudy
8:58 PM 39.6°F 38.7°F 97% 30.22 in 10.0 miles SE 4.6 mph - N/A   Mostly Cloudy
9:58 PM 37.9°F 37.2°F 97% 30.21 in 10.0 miles SSE 5.8 mph - N/A   Mostly Cloudy
10:58 PM 39.2°F 38.1°F 96% 30.21 in 10.0 miles South 2.3 mph - N/A   Overcast
11:58 PM 39.0°F 37.9°F 96% 30.21 in 10.0 miles SE 4.6 mph - N/A   Overcast
Moon Phase
Dec. 05 Dec. 06 Dec. 13 Dec. 20 Dec. 28
Sunrise:07:40 AM (PST) Moon Rise:11:37 PM (PST)12/5
Sunset:04:21 PM (PST) Moon Set:11:48 AM (PST)12/5

Copyright © 2014 The Weather Underground, Inc.